Regional Weather Roundup
Issued by NWS

Home | Current Version | Previous Version | Text Only | Print | Product List | Glossary Off
Versions: 1 2 3 4 5 6 7 8 9 10 11 12 13 14 15 16 17 18 19 20 21 22 23 24 25 26 27 28 29 30 31 32 33 34 35 36 37 38 39 40 41 42 43 44 45 46 47 48 49 50

000
ASUS43 KLOT 030003
RWRIL

ILLINOIS REGIONAL WEATHER ROUNDUP
NATIONAL WEATHER SERVICE CHICAGO/ROMEOVILLE IL
700 PM CDT MON MAY 02 2016

NOTE: "FAIR" INDICATES FEW OR NO CLOUDS BELOW 12,000 FEET WITH NO
SIGNIFICANT WEATHER AND/OR OBSTRUCTIONS TO VISIBILITY.

* THESE STATIONS ARE NOT UNDER NWS QUALITY CONTROL. THEY ALSO MAY NOT
  REPORT WEATHER SUCH AS PRECIPITATION OR FOG.

ILZ001-002-007-009-015-016-024-030100-
NORTHWEST ILLINOIS

CITY           SKY/WX    TMP DP  RH WIND       PRES   REMARKS
MOLINE         CLOUDY    58  43  57 CALM      30.02S
6HR MIN TEMP:  58; 6HR MAX TEMP:  61;

STERLING*      CLOUDY    57  39  51 CALM      30.02S
$$

ILZ003-004-008-010-011-017-018-030100-
NORTH CENTRAL ILLINOIS

CITY           SKY/WX    TMP DP  RH WIND       PRES   REMARKS
ROCKFORD       CLOUDY    58  39  49 NW3       30.03S
6HR MIN TEMP:  58; 6HR MAX TEMP:  63;

FREEPORT*      CLOUDY    57  40  53 CALM      30.03F
ROCHELLE*      CLOUDY    57  39  51 NE6       30.02R
DE KALB*       CLEAR     56  37  47 NE8       30.02R
$$

ILZ005-006-012>014-019>023-030100-
NORTHEAST ILLINOIS

CITY           SKY/WX    TMP DP  RH WIND       PRES   REMARKS
CHICAGO-OHARE  MOCLDY    55  31  39 NE9       30.01S
6HR MIN TEMP:  55; 6HR MAX TEMP:  59;

CHICAGO-MIDWAY MOCLDY    55  34  45 NE10      30.02S
6HR MIN TEMP:  54; 6HR MAX TEMP:  58;

AURORA         CLEAR     57  34  41 NE8       30.02S
6HR MIN TEMP:  57; 6HR MAX TEMP:  62;

LANSING*       CLOUDY    51  35  53 NE3       30.02S
WAUKEGAN       PTCLDY    51  35  54 E6        30.02S
6HR MIN TEMP:  51; 6HR MAX TEMP:  57;

DUPAGE AIRPORT CLEAR     56  31  38 NE7       30.00F
6HR MIN TEMP:  56; 6HR MAX TEMP:  60;

WHEELING       CLEAR     53  32  44 NE8       30.03S
6HR MIN TEMP:  53; 6HR MAX TEMP:  57;

MORRIS*        CLEAR     56  37  47 NE6       30.00S
NORTHERLY ISL    N/A     47  38  71 MISG        N/A
NORTHERLY ISL    N/A     47  38  71 MISG        N/A
$$

LMZ740>746-030100-
SOUTHERN LAKE MICHIGAN

STATION/POSITION SKY/WX   TEMP    WIND        PRES    VSBY  WAVE
                          AIR SEA DIR/SP/G                  HT/PER
                          (F)     (DEG/KT/KT) (MB)    (MI)  (FT/S)
SOUTHERN BUOY              42 42  340/  4/  4 1016.8          1/ 4
HARRISON CRIB              47     360/  7/  8   N/A
BURNHAM HARBOR             49     360/  6/ 10   N/A
CALUMET HARBOR             49     350/  7/ 12 1016.1F
BURNS HARBOR               46      50/  7/  9 1016.9F
MICHIGAN CITY              46      10/  9/ 10   N/A
ST. JOSEPH                 46 48                N/A           2/ 3
$$

ILZ025>027-034>036-040-047-049-050-058-095>099-030100-
WEST-CENTRAL ILLINOIS

CITY           SKY/WX    TMP DP  RH WIND       PRES   REMARKS
QUINCY         CLOUDY    52  47  83 N7        30.04S
MACOMB*        CLOUDY    55  47  76 W3        30.05S
PITTSFIELD*    CLOUDY    53  50  92 N3        30.04F
$$

ILZ028>032-037-038-041>044-048-051>054-059>061-030100-
CENTRAL ILLINOIS

CITY           SKY/WX    TMP DP  RH WIND       PRES   REMARKS
BLOOMINGTON    MOCLDY    56  43  61 NE6       30.01S
DECATUR        CLOUDY    55  47  74 NW7       30.00F
PEORIA         CLOUDY    56  45  66 NW6       30.02R
6HR MIN TEMP:  55; 6HR MAX TEMP:  59;

LINCOLN*       CLOUDY    56  48  76 CALM      30.01S
SPRINGFIELD    CLOUDY    56  48  74 N6        30.02S
6HR MIN TEMP:  52; 6HR MAX TEMP:  58;

TAYLORVILLE    NOT AVBL
$$

ILZ033-039-045-046-055>057-062-063-030100-
EAST-CENTRAL ILLINOIS

CITY           SKY/WX    TMP DP  RH WIND       PRES   REMARKS
CHAMPAIGN      CLOUDY    56  46  69 N8        29.98F
MATTOON        CLOUDY    55  47  74 N9        29.97F
$$

ILZ079-100>102-030100-
SOUTHWEST ILLINOIS

CITY           SKY/WX    TMP DP  RH WIND       PRES   REMARKS
ALTON          MOCLDY    54  48  82 NW8       30.01F
BELLEVILLE     CLOUDY    56  50  79 NW8       29.99S
CAHOKIA*       CLOUDY    56  48  74 NW7       30.01S
SPARTA*        CLOUDY    56  49  78 NW6       30.01S
$$

ILZ064>066-069>071-074>076-080>082-084>086-088>090-092>094-030100-
SOUTH-CENTRAL ILLINOIS

CITY           SKY/WX    TMP DP  RH WIND       PRES   REMARKS
CARBONDALE     MOCLDY    59  48  67 N8        29.98F
6HR MIN TEMP:  58; 6HR MAX TEMP:  61;

CAIRO*         MOCLDY    60  51  70 N10       29.96S
EFFINGHAM*     CLOUDY    56  51  84 W7        30.00S
MT. VERNON     CLOUDY    57  46  67 CALM      29.99S
SALEM*         MOCLDY    58  49  72 NW7       29.99S
$$

ILZ067-068-072-073-078-083-087-091-030100-
SOUTHEAST ILLINOIS

CITY           SKY/WX    TMP DP  RH WIND       PRES   REMARKS
LAWRENCEVILLE  CLOUDY    56  50  80 N9        29.97S
FLORA*         CLOUDY    57  50  76 N7        29.99S
HARRISBURG*    CLOUDY    58  50  74 NW7       29.99R
ROBINSON*      CLOUDY    54  50  86 N5        29.98S
CARMI*         CLOUDY    58  50  75 NW8       29.97S
$$

ABBREVIATIONS USED IN REMARKS
   TC - TEMPERATURE IN CELSIUS
  WCI - WIND CHILL INDEX
   HX - HEAT INDEX
  VSB - VISIBILITY
$$





USA.gov is the U.S. government's official web portal to all federal, state and local government web resources and services.